Location: Hermaringen
(48.5952°N, 10.2585°E)
Time: 08:41:47
(UTC+00:00)

Meteor 2-1 Rocket - Pass Details

Date: 18 November 2025
Orbit: 822 x 912 km, 81.3° (Epoch: 13 December)

Event Time Altitude Azimuth Distance (km) Brightness Sun altitude
Rises 17:43:19 0° 179° (S) 3,504 7.5 -20.8°
Reaches altitude 10° 17:45:47 10° 176° (S) 2,576 6.7 -21.2°
Maximum altitude 17:51:35 63° 96° (E) 1,011 4.3 -22.2°
Drops below altitude 10° 17:57:28 10° 17° (NNE) 2,611 6.5 -23.1°
Enters shadow 17:57:35 10° 17° (NNE) 2,654 6.6 -23.1°
